TimeGMT,TemperatureF,Dew PointF,Humidity,Sea Level PressureIn,VisibilityMPH,Wind Direction,Wind SpeedMPH,Gust SpeedMPH,PrecipitationIn,Events,Conditions,WindDirDegrees,DateUTC
12:20 AM,39.2,35.6,87,29.56,6.2,West,15.0,-,N/A,Rain,Light Rain,260,2011-11-30 00:20:00
12:50 AM,39.2,35.6,87,29.59,6.2,WSW,16.1,-,N/A,,Partly Cloudy,250,2011-11-30 00:50:00
1:20 AM,39.2,33.8,81,29.62,6.2,SW,17.3,-,N/A,,Scattered Clouds,230,2011-11-30 01:20:00
1:50 AM,39.2,35.6,87,29.65,6.2,WSW,19.6,-,N/A,Rain,Light Rain,240,2011-11-30 01:50:00
2:20 AM,39.2,35.6,87,29.68,6.2,WSW,16.1,-,N/A,,Scattered Clouds,240,2011-11-30 02:20:00
2:50 AM,39.2,33.8,81,29.68,6.2,WSW,15.0,-,N/A,,Partly Cloudy,250,2011-11-30 02:50:00
3:20 AM,39.2,35.6,87,29.71,6.2,WSW,16.1,-,N/A,,Scattered Clouds,240,2011-11-30 03:20:00
3:50 AM,39.2,35.6,87,29.71,6.2,WSW,10.4,-,N/A,,Scattered Clouds,240,2011-11-30 03:50:00
4:20 AM,39.2,35.6,87,29.74,6.2,WSW,12.7,-,N/A,,Mostly Cloudy,240,2011-11-30 04:20:00
4:50 AM,39.2,35.6,87,29.74,6.2,SW,13.8,-,N/A,,Scattered Clouds,230,2011-11-30 04:50:00
5:20 AM,39.2,35.6,87,29.74,6.2,SW,19.6,-,N/A,,Partly Cloudy,230,2011-11-30 05:20:00
5:50 AM,39.2,35.6,87,29.74,6.2,SW,18.4,-,N/A,,Partly Cloudy,230,2011-11-30 05:50:00
6:20 AM,41.0,35.6,81,29.74,-9999.0,SW,20.7,-,N/A,,Clear,230,2011-11-30 06:20:00
6:50 AM,41.0,35.6,81,29.74,-9999.0,SW,20.7,-,N/A,,Clear,230,2011-11-30 06:50:00
7:20 AM,41.0,35.6,81,29.74,-9999.0,SW,18.4,-,N/A,,Clear,230,2011-11-30 07:20:00
7:50 AM,41.0,35.6,81,29.77,-9999.0,SW,21.9,-,N/A,,Clear,230,2011-11-30 07:50:00
8:20 AM,41.0,35.6,81,29.77,-9999.0,SW,18.4,-,N/A,,Clear,220,2011-11-30 08:20:00
8:50 AM,42.8,35.6,76,29.77,-9999.0,SW,17.3,-,N/A,,Clear,220,2011-11-30 08:50:00
9:20 AM,42.8,37.4,81,29.77,-9999.0,SW,16.1,-,N/A,,Clear,220,2011-11-30 09:20:00
9:50 AM,44.6,37.4,76,29.77,-9999.0,SW,17.3,-,N/A,,Clear,220,2011-11-30 09:50:00
10:20 AM,46.4,39.2,76,29.77,6.2,SW,17.3,-,N/A,,Partly Cloudy,220,2011-11-30 10:20:00
10:50 AM,46.4,39.2,76,29.77,6.2,SW,18.4,-,N/A,,Partly Cloudy,220,2011-11-30 10:50:00
11:20 AM,46.4,41.0,81,29.74,6.2,SW,18.4,-,N/A,,Partly Cloudy,220,2011-11-30 11:20:00
11:50 AM,48.2,41.0,76,29.74,6.2,SW,19.6,-,N/A,,Scattered Clouds,220,2011-11-30 11:50:00
12:20 PM,48.2,42.8,82,29.71,6.2,SW,18.4,-,N/A,,Partly Cloudy,220,2011-11-30 12:20:00
12:50 PM,48.2,42.8,82,29.71,6.2,SW,20.7,32.2,N/A,,Partly Cloudy,220,2011-11-30 12:50:00
1:20 PM,48.2,42.8,82,29.68,6.2,SW,23.0,-,N/A,,Partly Cloudy,230,2011-11-30 13:20:00
1:50 PM,50.0,42.8,76,29.68,6.2,SW,24.2,-,N/A,,Scattered Clouds,230,2011-11-30 13:50:00
2:20 PM,50.0,42.8,76,29.68,6.2,SW,25.3,36.8,N/A,,Scattered Clouds,230,2011-11-30 14:20:00
2:50 PM,50.0,42.8,76,29.65,6.2,SW,24.2,-,N/A,,Partly Cloudy,230,2011-11-30 14:50:00
3:20 PM,50.0,42.8,76,29.62,6.2,SW,24.2,-,N/A,,Partly Cloudy,230,2011-11-30 15:20:00
3:50 PM,50.0,42.8,76,29.59,6.2,SW,31.1,-,N/A,,Partly Cloudy,220,2011-11-30 15:50:00
4:20 PM,50.0,42.8,76,29.59,6.2,SSW,29.9,44.9,N/A,Rain,Light Rain,210,2011-11-30 16:20:00
4:50 PM,50.0,42.8,76,29.56,6.2,SW,20.7,32.2,N/A,Rain,Light Rain,220,2011-11-30 16:50:00
5:20 PM,48.2,42.8,82,29.56,6.2,SW,21.9,-,N/A,Rain,Light Rain,220,2011-11-30 17:20:00
5:50 PM,48.2,44.6,87,29.56,5.6,SSW,21.9,-,N/A,Rain,Light Rain,210,2011-11-30 17:50:00
6:20 PM,50.0,42.8,76,29.50,6.2,SSW,24.2,-,N/A,Rain,Light Rain,210,2011-11-30 18:20:00
6:50 PM,50.0,42.8,76,29.47,6.2,SSW,25.3,36.8,N/A,Rain,Light Rain,210,2011-11-30 18:50:00
7:20 PM,50.0,42.8,76,29.47,5.0,SSW,24.2,35.7,N/A,Rain,Rain,210,2011-11-30 19:20:00
7:50 PM,48.2,42.8,82,29.44,5.6,SW,24.2,-,N/A,Rain,Light Rain,220,2011-11-30 19:50:00
8:20 PM,48.2,42.8,82,29.42,6.2,SSW,20.7,36.8,N/A,,Mostly Cloudy,210,2011-11-30 20:20:00
8:50 PM,48.2,42.8,82,29.39,5.6,SSW,26.5,-,N/A,Rain,Rain,210,2011-11-30 20:50:00
9:20 PM,48.2,42.8,82,29.36,6.2,SSW,25.3,-,N/A,Rain,Light Rain,210,2011-11-30 21:20:00
9:50 PM,48.2,42.8,82,29.33,6.2,SSW,26.5,38.0,N/A,Rain,Light Rain,210,2011-11-30 21:50:00
10:20 PM,48.2,42.8,82,29.30,6.2,SSW,26.5,-,N/A,Rain,Light Rain,210,2011-11-30 22:20:00
10:50 PM,48.2,42.8,82,29.30,6.2,SSW,28.8,40.3,N/A,Rain,Light Rain,210,2011-11-30 22:50:00
11:20 PM,48.2,42.8,82,29.24,6.2,SSW,29.9,43.7,N/A,Rain,Light Rain,210,2011-11-30 23:20:00
11:50 PM,50.0,42.8,76,29.21,6.2,SSW,28.8,40.3,N/A,Rain,Light Rain Showers,210,2011-11-30 23:50:00